Sumter, SC

6:46 PM EDT on May 24, 2017 (GMT -0400)
Sumter Municipal

Weather History for KSMS - June, 2014

Change the Weather History Date:

Thursday, June 19, 2014

  Actual Average Record
Temperature  
Mean Temperature 82 °F -  
Max Temperature 95 °F 89 °F 98 °F (2015)
Min Temperature 69 °F 67 °F 59 °F (2016)
Cooling Degree Days 17    
Growing Degree Days 32 (Base 50)    
Moisture  
Dew Point 70 °F    
Average Humidity 67    
Maximum Humidity 100    
Minimum Humidity 39    
Precipitation  
Precipitation 0.00 in - - ()
Sea Level Pressure  
Sea Level Pressure 30.10 in    
Wind  
Wind Speed 4 mph (SW)    
Max Wind Speed 12 mph    
Max Gust Speed 18 mph    
Visibility 10 miles    
Events      
Averages and records for this station are not official NWS values.
T = Trace of Precipitation, MM = Missing Value Source: NWS Daily Summary

Daily Weather History Graph

Daily Weather History Graph

Search for Another Location

Airport or City:

Trip Planner

Search our weather history database for the weather conditions in past years. The results will help you decide how hot, cold, wet, or windy it might be!

Date:

Astronomy

Jun. 19, 2014 Rise Set
Actual Time 6:10 AM EDT 8:35 PM EDT
Civil Twilight 5:40 AM EDT 9:04 PM EDT
Nautical Twilight 5:05 AM EDT 9:40 PM EDT
Astronomical Twilight 4:25 AM EDT 10:20 PM EDT
Moon 12:55 AM EDT (6/19) 1:20 PM EDT (6/19)
Length of Visible Light 15h 23m
Length of Day
14h 25m
Waning Gibbous, 51% of the Moon is Illuminated
Jun 19
Waning Gibbous
Jun 19
Last Quarter
Jun 27
New
Jul 5
First Quarter
Jul 12
Full

Hourly Weather History & Observations

Time (EDT) Temp. Heat Index Dew Point Humidity Pressure Visibility Wind Dir Wind Speed Gust Speed Precip Events Conditions
12:15 AM 78.8 °F - 71.6 °F 78% 30.14 in 10.0 mi SSW 6.9 mph - N/A   Clear
12:35 AM 77.0 °F - 69.8 °F 78% 30.15 in 10.0 mi SSW 5.8 mph - N/A   Clear
12:55 AM 77.0 °F - 69.8 °F 78% 30.14 in 10.0 mi Calm Calm - N/A   Clear
1:15 AM 77.0 °F - 69.8 °F 78% 30.14 in 10.0 mi SSW 4.6 mph - N/A   Clear
1:35 AM 75.2 °F - 71.6 °F 89% 30.14 in 10.0 mi SSW 6.9 mph - N/A   Clear
1:55 AM 75.2 °F - 69.8 °F 83% 30.14 in 10.0 mi SSW 6.9 mph - N/A   Clear
2:15 AM 75.2 °F - 69.8 °F 83% 30.13 in 10.0 mi SW 5.8 mph - N/A   Clear
2:35 AM 75.2 °F - 69.8 °F 83% 30.12 in 10.0 mi SSW 5.8 mph - N/A   Clear
2:55 AM 73.4 °F - 69.8 °F 88% 30.12 in 10.0 mi Calm Calm - N/A   Clear
3:15 AM 73.4 °F - 69.8 °F 88% 30.12 in 10.0 mi SSW 4.6 mph - N/A   Clear
3:35 AM 73.4 °F - 69.8 °F 88% 30.12 in 10.0 mi Calm Calm - N/A   Clear
3:55 AM 73.4 °F - 69.8 °F 88% 30.11 in 10.0 mi Calm Calm - N/A   Clear
4:15 AM 71.6 °F - 69.8 °F 94% 30.11 in 10.0 mi Calm Calm - N/A   Clear
4:35 AM 73.4 °F - 69.8 °F 88% 30.11 in 10.0 mi Calm Calm - N/A   Clear
4:55 AM 71.6 °F - 69.8 °F 94% 30.11 in 10.0 mi Calm Calm - N/A   Clear
5:15 AM 71.6 °F - 69.8 °F 94% 30.11 in 10.0 mi Calm Calm - N/A   Clear
5:35 AM 71.6 °F - 69.8 °F 94% 30.11 in 10.0 mi Calm Calm - N/A   Clear
6:15 AM 71.6 °F - 69.8 °F 94% 30.12 in 10.0 mi Calm Calm - N/A   Clear
6:35 AM 69.8 °F - 69.8 °F 100% 30.13 in 10.0 mi Calm Calm - N/A   Clear
6:55 AM 71.6 °F - 69.8 °F 94% 30.13 in 10.0 mi Calm Calm - N/A   Clear
7:15 AM 73.4 °F - 71.6 °F 94% 30.15 in 10.0 mi Calm Calm - N/A   Clear
7:35 AM 75.2 °F - 71.6 °F 89% 30.14 in 10.0 mi SW 5.8 mph - N/A   Clear
7:55 AM 75.2 °F - 71.6 °F 89% 30.15 in 10.0 mi WSW 5.8 mph - N/A   Clear
8:15 AM 77.0 °F - 71.6 °F 83% 30.16 in 10.0 mi WSW 4.6 mph - N/A   Clear
8:35 AM 78.8 °F - 71.6 °F 78% 30.16 in 10.0 mi WSW 3.5 mph - N/A   Clear
8:55 AM 80.6 °F 84.6 °F 71.6 °F 74% 30.16 in 10.0 mi SW 10.4 mph - N/A   Clear
9:15 AM 82.4 °F 87.2 °F 71.6 °F 70% 30.16 in 10.0 mi WSW 9.2 mph - N/A   Clear
9:35 AM 82.4 °F 88.2 °F 73.4 °F 74% 30.16 in 10.0 mi SW 10.4 mph - N/A   Clear
9:55 AM 82.4 °F 88.2 °F 73.4 °F 74% 30.16 in 10.0 mi West 9.2 mph - N/A   Clear
10:15 AM 84.2 °F 90.9 °F 73.4 °F 70% 30.15 in 10.0 mi West 6.9 mph - N/A   Clear
11:15 AM 87.8 °F 93.8 °F 71.6 °F 58% 30.15 in 10.0 mi WSW 5.8 mph - N/A   Clear
11:35 AM 87.8 °F 95.6 °F 73.4 °F 62% 30.14 in 10.0 mi SSW 6.9 mph - N/A   Clear
11:55 AM 89.6 °F 96.2 °F 71.6 °F 55% 30.14 in 10.0 mi West 5.8 mph 13.8 mph N/A   Clear
12:15 PM 89.6 °F 98.2 °F 73.4 °F 59% 30.13 in 10.0 mi West 5.8 mph - N/A   Clear
12:35 PM 89.6 °F 96.2 °F 71.6 °F 55% 30.13 in 10.0 mi Calm Calm - N/A   Clear
12:55 PM 91.4 °F 98.4 °F 71.6 °F 52% 30.12 in 10.0 mi Calm Calm - N/A   Clear
1:15 PM 91.4 °F 96.8 °F 69.8 °F 49% 30.11 in 10.0 mi Variable 3.5 mph - N/A   Clear
1:35 PM 93.2 °F 98.8 °F 69.8 °F 46% 30.11 in 10.0 mi SSW 6.9 mph - N/A   Clear
1:55 PM 91.4 °F 96.8 °F 69.8 °F 49% 30.10 in 10.0 mi Variable 6.9 mph 13.8 mph N/A   Clear
2:15 PM 93.2 °F 98.8 °F 69.8 °F 46% 30.09 in 10.0 mi Variable 4.6 mph - N/A   Clear
2:35 PM 93.2 °F 98.8 °F 69.8 °F 46% 30.08 in 10.0 mi Variable 5.8 mph 12.7 mph N/A   Clear
2:55 PM 93.2 °F 98.8 °F 69.8 °F 46% 30.07 in 10.0 mi Calm Calm - N/A   Clear
3:15 PM 95.0 °F 101.3 °F 69.8 °F 44% 30.07 in 10.0 mi SSW 6.9 mph - N/A   Clear
3:35 PM 95.0 °F 99.5 °F 68.0 °F 41% 30.06 in 10.0 mi Calm Calm - N/A   Clear
3:55 PM 95.0 °F 101.3 °F 69.8 °F 44% 30.05 in 10.0 mi SSW 8.1 mph - N/A   Clear
4:15 PM 95.0 °F 99.5 °F 68.0 °F 41% 30.04 in 10.0 mi SSW 4.6 mph - N/A   Clear
4:35 PM 95.0 °F 98.5 °F 66.2 °F 39% 30.04 in 10.0 mi Calm Calm - N/A   Clear
4:55 PM 95.0 °F 99.5 °F 68.0 °F 41% 30.03 in 10.0 mi South 3.5 mph - N/A   Clear
5:15 PM 93.2 °F 98.8 °F 69.8 °F 46% 30.03 in 10.0 mi South 8.1 mph - N/A   Clear
5:35 PM 93.2 °F 98.8 °F 69.8 °F 46% 30.03 in 10.0 mi SW 5.8 mph - N/A   Partly Cloudy
5:55 PM 93.2 °F 98.8 °F 69.8 °F 46% 30.03 in 10.0 mi Variable 5.8 mph - N/A   Clear
6:15 PM 93.2 °F 98.8 °F 69.8 °F 46% 30.03 in 10.0 mi South 6.9 mph 12.7 mph N/A   Clear
6:35 PM 93.2 °F 98.8 °F 69.8 °F 46% 30.02 in 10.0 mi South 6.9 mph - N/A   Clear
6:55 PM 91.4 °F 96.8 °F 69.8 °F 49% 30.02 in 10.0 mi Calm Calm - N/A   Clear
7:15 PM 91.4 °F 96.8 °F 69.8 °F 49% 30.02 in 10.0 mi SSW 8.1 mph - N/A   Clear
7:35 PM 89.6 °F 94.7 °F 69.8 °F 52% 30.03 in 10.0 mi South 3.5 mph - N/A   Clear
7:55 PM 87.8 °F 92.6 °F 69.8 °F 55% 30.03 in 10.0 mi Calm Calm - N/A   Clear
8:15 PM 87.8 °F 92.6 °F 69.8 °F 55% 30.03 in 10.0 mi Calm Calm - N/A   Clear
8:35 PM 86.0 °F 90.4 °F 69.8 °F 58% 30.03 in 10.0 mi Calm Calm - N/A   Clear
8:55 PM 84.2 °F 89.6 °F 71.6 °F 66% 30.04 in 10.0 mi Calm Calm - N/A   Clear
9:15 PM 82.4 °F 87.2 °F 71.6 °F 70% 30.04 in 10.0 mi Calm Calm - N/A   Partly Cloudy
9:35 PM 84.2 °F 88.4 °F 69.8 °F 62% 30.06 in 10.0 mi NW 11.5 mph 18.4 mph N/A   Scattered Clouds
9:55 PM 82.4 °F 85.4 °F 68.0 °F 62% 30.07 in 10.0 mi NW 6.9 mph 15.0 mph N/A   Partly Cloudy
10:15 PM 80.6 °F 82.7 °F 66.2 °F 61% 30.06 in 10.0 mi WNW 5.8 mph - N/A   Clear
10:35 PM 80.6 °F 82.7 °F 66.2 °F 61% 30.06 in 10.0 mi Calm Calm - N/A   Clear
10:55 PM 78.8 °F - 66.2 °F 65% 30.05 in 10.0 mi Calm Calm - N/A   Clear
11:15 PM 78.8 °F - 68.0 °F 69% 30.05 in 10.0 mi Calm Calm - N/A   Clear
11:35 PM 78.8 °F - 68.0 °F 69% 30.06 in 10.0 mi Calm Calm - N/A   Clear
11:55 PM 77.0 °F - 69.8 °F 78% 30.06 in 10.0 mi Calm Calm - N/A   Clear